Meteo pe oră la Dagbash

Astăzi, 22 Aprilie, Joi

Timp Temperatura Precipitaţii Vânt Presiune Umiditate
00:00 +7°C° 0.1 mm 2 m/s 602 mmHg 91%
01:00 +7°C° 0.4 mm 2 m/s 602 mmHg 91%
02:00 +7°C° 0.4 mm 2 m/s 601 mmHg 92%
03:00 +6°C° 0 mm 2 m/s 601 mmHg 92%
04:00 +7°C° 0.3 mm 2 m/s 601 mmHg 92%
05:00 +7°C° 0.3 mm 2 m/s 601 mmHg 92%
06:00 +7°C° 0.3 mm 2 m/s 601 mmHg 93%
07:00 +8°C° 0.2 mm 2 m/s 602 mmHg 90%
08:00 +10°C° 0.2 mm 2 m/s 602 mmHg 87%
09:00 +12°C° 0 mm 2 m/s 603 mmHg 84%
10:00 +13°C° 0.2 mm 2 m/s 603 mmHg 77%
11:00 +13°C° 0.2 mm 3 m/s 603 mmHg 70%
12:00 +14°C° 0.2 mm 3 m/s 603 mmHg 63%
13:00 +13°C° 0.4 mm 3 m/s 603 mmHg 65%
14:00 +14°C° 0.4 mm 2 m/s 603 mmHg 67%
15:00 +14°C° 0 mm 2 m/s 602 mmHg 66%
16:00 +12°C° 0.5 mm 2 m/s 602 mmHg 74%
17:00 +10°C° 0.5 mm 2 m/s 602 mmHg 82%
18:00 +9°C° 0.5 mm 2 m/s 601 mmHg 90%
19:00 +8°C° 0.4 mm 2 m/s 601 mmHg 92%
20:00 +7°C° 0.4 mm 2 m/s 601 mmHg 94%
21:00 +7°C° 0.4 mm 2 m/s 601 mmHg 96%
22:00 +7°C° 0.4 mm 2 m/s 601 mmHg 96%
23:00 +7°C° 0.4 mm 2 m/s 600 mmHg 95%

Mâine, 23 Aprilie, Vineri

Timp Temperatura Precipitaţii Vânt Presiune Umiditate
00:00 +7°C° 0.4 mm 2 m/s 600 mmHg 94%
01:00 +6°C° 0.1 mm 2 m/s 600 mmHg 94%
02:00 +6°C° 0.1 mm 2 m/s 600 mmHg 94%
03:00 +6°C° 0.1 mm 2 m/s 600 mmHg 94%
04:00 +5°C° 0.3 mm 2 m/s 600 mmHg 93%
05:00 +5°C° 0.3 mm 2 m/s 600 mmHg 93%
06:00 +5°C° 0.3 mm 2 m/s 600 mmHg 93%
07:00 +4°C° 0.4 mm 3 m/s 601 mmHg 91%
08:00 +4°C° 0.4 mm 3 m/s 601 mmHg 89%
09:00 +4°C° 0.4 mm 3 m/s 601 mmHg 87%
10:00 +4°C° 0.6 mm 3 m/s 601 mmHg 83%
11:00 +5°C° 0.6 mm 3 m/s 602 mmHg 78%
12:00 +5°C° 0.6 mm 3 m/s 602 mmHg 73%
13:00 +7°C° 0 mm 3 m/s 602 mmHg 66%
14:00 +7°C° 0 mm 3 m/s 602 mmHg 60%
15:00 +8°C° 0 mm 3 m/s 603 mmHg 53%
16:00 +7°C° 0 mm 2 m/s 603 mmHg 55%
17:00 +7°C° 0 mm 2 m/s 603 mmHg 56%
18:00 +7°C° 0 mm 1 m/s 603 mmHg 58%
19:00 +5°C° 0 mm 2 m/s 602 mmHg 60%
20:00 +4°C° 0 mm 2 m/s 602 mmHg 62%
21:00 +3°C° 0 mm 2 m/s 602 mmHg 63%
22:00 +3°C° 0 mm 2 m/s 602 mmHg 61%
23:00 +2°C° 0 mm 3 m/s 602 mmHg 59%

Poimâine, 24 Aprilie, Sâmbătă

Timp Temperatura Precipitaţii Vânt Presiune Umiditate
00:00 +1°C° 0 mm 3 m/s 601 mmHg 57%
01:00 +1°C° 0 mm 3 m/s 601 mmHg 63%
02:00 +1°C° 0 mm 3 m/s 601 mmHg 68%
03:00 +1°C° 0 mm 3 m/s 600 mmHg 74%
04:00 +2°C° 0 mm 3 m/s 600 mmHg 77%
05:00 +2°C° 0 mm 3 m/s 600 mmHg 81%
06:00 +2°C° 0 mm 3 m/s 601 mmHg 84%
07:00 +5°C° 0 mm 3 m/s 601 mmHg 74%
08:00 +8°C° 0 mm 3 m/s 601 mmHg 64%
09:00 +10°C° 0 mm 2 m/s 602 mmHg 54%
10:00 +12°C° 0 mm 2 m/s 602 mmHg 50%
11:00 +12°C° 0 mm 3 m/s 602 mmHg 45%
12:00 +13°C° 0 mm 3 m/s 602 mmHg 41%
13:00 +13°C° 0 mm 3 m/s 602 mmHg 41%
14:00 +13°C° 0 mm 3 m/s 602 mmHg 42%
15:00 +13°C° 0 mm 3 m/s 602 mmHg 42%
16:00 +13°C° 0 mm 2 m/s 602 mmHg 50%
17:00 +12°C° 0 mm 2 m/s 602 mmHg 58%
18:00 +9°C° 0 mm 2 m/s 602 mmHg 66%
19:00 +8°C° 0 mm 2 m/s 602 mmHg 69%
20:00 +7°C° 0 mm 2 m/s 602 mmHg 73%
21:00 +7°C° 0 mm 1 m/s 602 mmHg 76%
22:00 +7°C° 0 mm 1 m/s 601 mmHg 76%
23:00 +6°C° 0 mm 2 m/s 601 mmHg 76%

25 Aprilie, Duminică

Timp Temperatura Precipitaţii Vânt Presiune Umiditate
00:00 +5°C° 0 mm 2 m/s 601 mmHg 76%
01:00 +5°C° 0 mm 2 m/s 601 mmHg 78%
02:00 +5°C° 0 mm 2 m/s 601 mmHg 80%
03:00 +4°C° 0 mm 2 m/s 601 mmHg 83%
04:00 +5°C° 0 mm 2 m/s 601 mmHg 81%
05:00 +5°C° 0 mm 2 m/s 601 mmHg 79%
06:00 +6°C° 0 mm 2 m/s 601 mmHg 78%
07:00 +8°C° 0 mm 2 m/s 601 mmHg 70%
08:00 +10°C° 0 mm 2 m/s 602 mmHg 62%
09:00 +13°C° 0 mm 2 m/s 602 mmHg 54%
10:00 +14°C° 0 mm 2 m/s 603 mmHg 50%
11:00 +14°C° 0 mm 3 m/s 603 mmHg 47%
12:00 +16°C° 0 mm 3 m/s 603 mmHg 44%
13:00 +16°C° 0 mm 3 m/s 603 mmHg 42%
14:00 +16°C° 0 mm 3 m/s 603 mmHg 41%
15:00 +16°C° 0 mm 3 m/s 602 mmHg 39%
16:00 +15°C° 0 mm 2 m/s 602 mmHg 46%
17:00 +14°C° 0 mm 2 m/s 602 mmHg 53%
18:00 +13°C° 0 mm 2 m/s 601 mmHg 61%
19:00 +12°C° 0 mm 2 m/s 601 mmHg 67%
20:00 +9°C° 0 mm 2 m/s 601 mmHg 74%
21:00 +8°C° 0 mm 3 m/s 600 mmHg 81%
22:00 +8°C° 0 mm 3 m/s 600 mmHg 82%
23:00 +7°C° 0 mm 3 m/s 600 mmHg 82%

26 Aprilie, Luni

Timp Temperatura Precipitaţii Vânt Presiune Umiditate
00:00 +7°C° 0 mm 3 m/s 599 mmHg 82%
01:00 +7°C° 0 mm 3 m/s 599 mmHg 82%
02:00 +7°C° 0 mm 3 m/s 599 mmHg 83%
03:00 +7°C° 0 mm 3 m/s 598 mmHg 84%
04:00 +7°C° 0 mm 3 m/s 599 mmHg 82%
05:00 +8°C° 0 mm 3 m/s 599 mmHg 80%
06:00 +8°C° 0 mm 3 m/s 599 mmHg 78%
07:00 +10°C° 0 mm 3 m/s 599 mmHg 68%
08:00 +12°C° 0 mm 3 m/s 600 mmHg 59%
09:00 +16°C° 0 mm 3 m/s 600 mmHg 50%
10:00 +17°C° 0 mm 3 m/s 600 mmHg 47%
11:00 +17°C° 0 mm 4 m/s 600 mmHg 44%
12:00 +18°C° 0 mm 4 m/s 601 mmHg 41%
13:00 +18°C° 0 mm 4 m/s 600 mmHg 42%
14:00 +18°C° 0 mm 3 m/s 600 mmHg 42%
15:00 +18°C° 0 mm 3 m/s 600 mmHg 42%
16:00 +16°C° 0.2 mm 3 m/s 600 mmHg 52%
17:00 +13°C° 0.2 mm 3 m/s 599 mmHg 62%
18:00 +12°C° 0.2 mm 3 m/s 599 mmHg 71%
19:00 +11°C° 0.6 mm 3 m/s 599 mmHg 76%
20:00 +9°C° 0.6 mm 2 m/s 599 mmHg 82%
21:00 +8°C° 0.6 mm 2 m/s 599 mmHg 87%
22:00 +8°C° 0 mm 2 m/s 599 mmHg 88%
23:00 +8°C° 0 mm 2 m/s 598 mmHg 89%

27 Aprilie, Marţi

Timp Temperatura Precipitaţii Vânt Presiune Umiditate
00:00 +7°C° 0 mm 2 m/s 598 mmHg 90%
01:00 +7°C° 0 mm 2 m/s 598 mmHg 92%
02:00 +7°C° 0 mm 2 m/s 598 mmHg 93%
03:00 +6°C° 0 mm 2 m/s 598 mmHg 95%
04:00 +7°C° 0.3 mm 2 m/s 598 mmHg 95%
05:00 +7°C° 0.3 mm 2 m/s 598 mmHg 95%
06:00 +8°C° 0.3 mm 1 m/s 598 mmHg 95%
07:00 +8°C° 0.2 mm 2 m/s 599 mmHg 89%
08:00 +10°C° 0.2 mm 2 m/s 599 mmHg 83%
09:00 +12°C° 0.2 mm 2 m/s 599 mmHg 77%
10:00 +12°C° 0.2 mm 2 m/s 600 mmHg 77%
11:00 +11°C° 0.2 mm 3 m/s 600 mmHg 76%
12:00 +11°C° 0.2 mm 3 m/s 600 mmHg 75%
13:00 +10°C° 1.5 mm 3 m/s 599 mmHg 80%
14:00 +9°C° 1.5 mm 2 m/s 599 mmHg 84%
15:00 +8°C° 1.5 mm 2 m/s 599 mmHg 89%
16:00 +8°C° 0.2 mm 2 m/s 599 mmHg 88%
17:00 +8°C° 0.2 mm 2 m/s 599 mmHg 88%
18:00 +9°C° 0.2 mm 1 m/s 599 mmHg 87%
19:00 +8°C° 0 mm 2 m/s 599 mmHg 89%
20:00 +7°C° 0 mm 2 m/s 599 mmHg 91%
21:00 +7°C° 0 mm 2 m/s 599 mmHg 93%
22:00 +7°C° 0 mm 2 m/s 599 mmHg 92%
23:00 +8°C° 0 mm 1 m/s 599 mmHg 91%
Arată mai mult

Formular de consimțământ

Meteoprog și furnizorii noștri de servicii pot stoca și accesa date personale, precum cookies, identificatori de dispozitiv sau alte tehnologii similare pe dispozitivul dumneavoastră și procesa astfel de date pentru a personaliza conținutul și reclamele, dar și pentru a oferi caracteristici de social media și pentru a analiza traficul.

  • Stocarea și/sau accesarea informațiilor pe dispozitivul dumneavoastră

    Cookies, identificatori de dispozitiv sau alte informații pot fi stocate sau accesate pe dispozitiv în scopurile indicate mai sus.

  • Reclame și conținut personalizat, evaluarea reclamelor și a conținutului, informații despre audiențe și dezvoltarea produselor

    Reclamele și conținutul pot fi personalizate pe baza unui profil. Pot fi adăugate date suplimentare pentru a personaliza mai bine reclamele și conținutul. Performanța reclamelor și conținutului poate fi măsurată. Pot fi obținute informații despre utilizatorii care au văzut reclamele și conținutul. Aceste date pot fi utilizate pentru a dezvolta sau îmbunătăți experiența utilizatorilor, sistemele și software-ul.

Dând clic pe ‘Sunt de acord’, permiteți utilizarea cookie-urilor menționate, a identificatorilor de dispozitiv, balizelor web sau altor tehnologii similare. Setările pot fi modificate din browser-ul dispozitivului dumneavoastră.

În anumite scopuri, interesele legitime pot prima asupra consimțământului. Puteți citi mai multe informații în acest sens în Politica privind Confidențialitatea Datelor și Cookie.